[[{"header":{"parameterUnit":"m.s-1","parameterCategory":2,"la1":30.2991,"la2":30.254,"lo1":-89.0895,"lo2":-89.0444,"dy":0.0017,"dx":0.0017,"nx":28,"ny":28,"refTime":"2024-11-29T03:00:00:Z","depth":"0","parameterNumber":2,"parameterNumberName":"U-component_of_CURRENTS"},"data":[0,0,0,0,0,0,0,0,0,0,0,0,0,0,0,0,0,0,0,0,0,0,0,0,0,0,0,0,0,0,0,0,0,0,0,0,0,0,0,0,0,0,0,0,0,0,0,0,0,0,0,0,0,0,0,0,0,0,-0.2805,-0.2805,0,-0.2881,-0.2882,-0.2882,-0.2829,-0.2827,-0.2825,-0.2823,-0.287,-0.2873,-0.2877,0,0,0,0,0,0,0,0,0,0,0,0,0,-0.2607,-0.2611,-0.2804,-0.2806,-0.2807,-0.2881,-0.2882,-0.2883,-0.283,-0.2827,-0.2824,-0.2822,-0.2869,-0.2873,-0.2877,0,0,0,0,0,0,0,0,0,0,0,0,0,-0.2688,-0.2612,-0.2804,-0.279,-0.279,-0.2881,-0.2882,-0.2883,-0.283,-0.2827,-0.2823,-0.282,-0.2868,-0.2872,-0.2877,-0.2975,0,0,-0.2893,-0.2895,0,0,0,0,0,0,0,0,-0.2683,-0.2695,-0.2791,-0.2792,-0.2791,-0.2844,-0.283,-0.2913,-0.2831,-0.2813,-0.2823,-0.2819,-0.2862,-0.2867,-0.2887,-0.2977,-0.298,-0.2893,-0.2896,-0.2898,-0.29,0,0,0,0,0,0,0,-0.2678,-0.2691,-0.2833,-0.2793,-0.2793,-0.2779,-0.2786,-0.2845,-0.2854,-0.2814,-0.2811,-0.2824,-0.2861,-0.2882,-0.2888,-0.298,-0.2893,-0.2897,-0.2901,-0.2903,-0.3059,-0.306,0,0,0,0,0,0,-0.2677,-0.2687,-0.283,-0.2835,-0.273,-0.2785,-0.2794,-0.2829,-0.2853,-0.2855,-0.2826,-0.2821,-0.2876,-0.2882,-0.2889,-0.2916,-0.2898,-0.2903,-0.2906,-0.3057,-0.3059,-0.306,0,0,0,0,0,0,-0.2673,-0.269,-0.2827,-0.2762,-0.2778,-0.2792,-0.2832,-0.2832,-0.2841,-0.2863,-0.2863,-0.2833,-0.2873,-0.2882,-0.2919,-0.292,-0.2905,-0.291,-0.3056,-0.3058,-0.3059,-0.3028,0,0,0,0,0,0,-0.2667,-0.2689,-0.2715,-0.2763,-0.2782,-0.2865,-0.2836,-0.2836,-0.2855,-0.2848,-0.2871,-0.2871,-0.2871,-0.2911,-0.2924,-0.2927,-0.2914,-0.3055,-0.3057,-0.3059,-0.3028,-0.3029,-0.3029,0,0,0,0,0,-0.266,-0.2702,-0.2716,-0.2733,-0.2818,-0.2866,-0.2874,-0.287,-0.2859,-0.2866,-0.2874,-0.287,-0.2933,-0.2917,-0.2931,-0.2936,-0.3054,-0.3056,-0.3059,-0.3027,-0.3028,-0.3029,0,0,0,0,0,0,-0.2629,-0.2703,-0.2718,-0.2781,-0.2815,-0.2857,-0.287,-0.2881,-0.2899,-0.2888,-0.2899,-0.2902,-0.2932,-0.2954,-0.2936,-0.2989,-0.299,-0.2995,-0.2961,-0.2962,-0.2963,-0.291,-0.2918,0,0,0,0,0,-0.2642,-0.2688,-0.2748,-0.2795,-0.2814,-0.2849,-0.287,-0.2873,-0.2898,-0.2902,-0.2917,-0.2937,-0.2963,-0.2974,-0.3004,-0.3052,-0.3017,-0.3062,-0.3063,-0.3063,-0.3031,-0.2989,-0.2981,-0.3068,-0.3068,-0.3068,0,0,-0.2643,-0.2689,-0.2716,-0.2791,-0.2817,-0.2847,-0.2851,-0.2883,-0.2894,-0.2911,-0.2925,-0.295,-0.2979,-0.3007,-0.3023,-0.3018,-0.3022,-0.3066,-0.3066,-0.3033,-0.299,-0.2981,-0.2972,-0.307,-0.307,-0.307,0,0,-0.2653,-0.271,-0.2743,-0.2775,-0.2823,-0.2849,-0.2859,-0.2904,-0.2902,-0.2949,-0.2942,-0.2955,-0.3028,-0.3013,-0.3027,-0.3062,-0.3032,-0.3088,-0.3044,-0.3004,-0.2995,-0.2986,-0.2927,-0.2914,-0.3083,-0.3083,-0.3083,0,-0.2645,-0.2696,-0.2755,-0.2786,-0.2797,-0.2848,-0.2859,-0.2892,-0.2936,-0.2926,-0.2945,-0.2992,-0.3021,-0.3015,-0.3015,-0.3057,-0.3023,-0.3033,-0.2999,-0.299,-0.2981,-0.2923,-0.2909,-0.3082,-0.3082,-0.3082,-0.3082,0,-0.2675,-0.2705,-0.2723,-0.2777,-0.2806,-0.2824,-0.2871,-0.2888,-0.2909,-0.2928,-0.2937,-0.2974,-0.298,-0.3008,-0.3025,-0.2985,-0.2975,-0.3004,-0.2982,-0.297,-0.2911,-0.2896,-0.308,-0.308,-0.3081,-0.3081,0,0,-0.2651,-0.2726,-0.2724,-0.272,-0.2788,-0.2804,-0.2833,-0.2849,-0.2837,-0.2891,-0.2864,-0.2915,-0.2916,-0.2929,-0.2948,-0.2918,-0.2842,-0.2929,-0.2928,-0.2844,-0.2727,-0.263,-0.2604,-0.286,-0.2858,-0.2856,-0.2707,0,-0.2631,-0.2657,-0.2711,-0.2711,-0.2709,-0.2758,-0.2775,-0.2801,-0.2825,-0.2823,-0.2846,-0.285,-0.2895,-0.2888,-0.2867,-0.2864,-0.2802,-0.2877,-0.2774,-0.277,-0.2663,-0.2583,-0.2448,-0.2296,-0.2692,-0.269,-0.2688,0,-0.2607,-0.2624,-0.2618,-0.2632,-0.2639,-0.2654,-0.2647,-0.2673,-0.2697,-0.2717,-0.2721,-0.2752,-0.2731,-0.2772,-0.2712,-0.2759,-0.2717,-0.2707,-0.2702,-0.2601,-0.2643,-0.2377,-0.2254,-0.2244,-0.2665,-0.2667,-0.2668,0,-0.2493,-0.2535,-0.2513,-0.2524,-0.2577,-0.2562,-0.2583,-0.2614,-0.2607,-0.2625,-0.2622,-0.2632,-0.2621,-0.2596,-0.2606,-0.2641,-0.2528,-0.258,-0.2435,-0.2429,-0.2283,-0.2267,-0.2107,-0.2472,-0.2473,-0.2473,-0.2473,0,-0.2411,-0.2385,-0.2452,-0.2435,-0.239,-0.2467,-0.2421,-0.2451,-0.2479,-0.2446,-0.2539,-0.2505,-0.2573,-0.2546,-0.2548,-0.2439,-0.2475,-0.2375,-0.2365,-0.2272,-0.2257,-0.2221,-0.2261,-0.2467,-0.2469,-0.247,-0.2471,0,-0.226,-0.2317,-0.2278,-0.2322,-0.2326,-0.2282,-0.2305,-0.2279,-0.2342,-0.2298,-0.2297,-0.2376,-0.234,-0.2388,-0.2346,-0.2333,-0.2201,-0.221,-0.2089,-0.2065,-0.1908,-0.1951,-0.1741,-0.1701,-0.1995,-0.1991,-0.1988,0,-0.2178,-0.215,-0.2162,-0.2133,-0.214,-0.2112,-0.2091,-0.2167,-0.2149,-0.2197,-0.2155,-0.2153,-0.21,-0.204,-0.2028,-0.1964,-0.2015,-0.1802,-0.1831,-0.1821,-0.1864,-0.1905,-0.1893,-0.1633,-0.1627,-0.1623,-0.1619,0,-0.2005,-0.2016,-0.1994,-0.1943,-0.1907,-0.1875,-0.186,-0.1836,-0.1917,-0.1904,-0.1871,-0.1838,-0.1795,-0.169,-0.1656,-0.1623,-0.1734,-0.1699,-0.1714,-0.1554,-0.1559,-0.1544,-0.1823,-0.1577,-0.1582,-0.1585,-0.1587,-0.1589,-0.186,-0.1802,-0.1788,-0.1727,-0.1696,-0.1642,-0.1571,-0.1591,-0.1547,-0.1527,-0.1567,-0.1509,-0.1454,-0.1377,-0.1346,-0.1277,-0.1377,-0.1244,-0.1292,-0.1331,-0.129,-0.1459,-0.1202,-0.1204,-0.1205,-0.1207,-0.1208,0,-0.1674,-0.1642,-0.158,-0.151,-0.1431,-0.1473,-0.1419,-0.1351,-0.1266,-0.1295,-0.1238,-0.1185,-0.1044,-0.1064,-0.0988,-0.0916,-0.0934,-0.0915,-0.0957,-0.0963,-0.1105,-0.1089,-0.0763,-0.0763,-0.0763,-0.0763,-0.0763,-0.0763,-0.1572,-0.1464,-0.1447,-0.1277,-0.1236,-0.1094,-0.1041,-0.0975,-0.0973,-0.0928,-0.0956,-0.0984,-0.0977,-0.0908,-0.0804,-0.0762,-0.0789,-0.0701,-0.0803,-0.0938,-0.0975,-0.1011,-0.1004,-0.0664,-0.0664,-0.0601,-0.0601,-0.0601]},{"header":{"parameterUnit":"m.s-1","parameterCategory":2,"la1":30.2991,"la2":30.254,"lo1":-89.0895,"lo2":-89.0444,"dy":0.0017,"dx":0.0017,"nx":28,"ny":28,"refTime":"2024-11-29T03:00:00:Z","depth":"0","parameterNumber":3,"parameterNumberName":"V-component_of_CURRENTS"},"data":[0,0,0,0,0,0,0,0,0,0,0,0,0,0,0,0,0,0,0,0,0,0,0,0,0,0,0,0,0,0,0,0,0,0,0,0,0,0,0,0,0,0,0,0,0,0,0,0,0,0,0,0,0,0,0,0,0,0,-0.0672,-0.0671,0,-0.0592,-0.0591,-0.059,-0.0515,-0.0515,-0.0514,-0.0513,-0.0354,-0.035,-0.0347,0,0,0,0,0,0,0,0,0,0,0,0,0,-0.0666,-0.0667,-0.0672,-0.0671,-0.0671,-0.0592,-0.0591,-0.0589,-0.0515,-0.0515,-0.0514,-0.0513,-0.0355,-0.0351,-0.0346,0,0,0,0,0,0,0,0,0,0,0,0,0,-0.0634,-0.0667,-0.0672,-0.0626,-0.0621,-0.0592,-0.0591,-0.0589,-0.0516,-0.0515,-0.0514,-0.0513,-0.0356,-0.0351,-0.0346,-0.0334,0,0,-0.0329,-0.0327,0,0,0,0,0,0,0,0,-0.0636,-0.0634,-0.0634,-0.0629,-0.0624,-0.0564,-0.053,-0.0501,-0.0516,-0.0553,-0.0513,-0.0512,-0.0419,-0.0409,-0.0394,-0.0327,-0.032,-0.0329,-0.0326,-0.0323,-0.0322,0,0,0,0,0,0,0,-0.0638,-0.0636,-0.0638,-0.0633,-0.0627,-0.0576,-0.0571,-0.0524,-0.049,-0.055,-0.0545,-0.054,-0.0415,-0.0399,-0.0389,-0.0317,-0.0329,-0.0324,-0.0321,-0.0319,-0.0241,-0.0242,0,0,0,0,0,0,-0.0659,-0.0639,-0.0641,-0.0636,-0.063,-0.0578,-0.0572,-0.0583,-0.0492,-0.0479,-0.0541,-0.0537,-0.0409,-0.0396,-0.0383,-0.037,-0.0323,-0.0318,-0.0315,-0.024,-0.0241,-0.0243,0,0,0,0,0,0,-0.0659,-0.0661,-0.0644,-0.0636,-0.0631,-0.058,-0.0592,-0.0582,-0.0564,-0.0487,-0.0471,-0.0534,-0.0408,-0.0391,-0.034,-0.0363,-0.0316,-0.0311,-0.0239,-0.024,-0.0242,-0.034,0,0,0,0,0,0,-0.066,-0.0662,-0.0677,-0.0638,-0.0632,-0.0632,-0.0593,-0.0581,-0.0564,-0.0557,-0.0475,-0.0459,-0.0406,-0.0349,-0.0335,-0.0355,-0.0307,-0.0237,-0.0239,-0.0241,-0.0335,-0.0345,-0.0353,0,0,0,0,0,-0.066,-0.0689,-0.0678,-0.0678,-0.0655,-0.0633,-0.0625,-0.0582,-0.0565,-0.0561,-0.0504,-0.0462,-0.0354,-0.0345,-0.0329,-0.0347,-0.0236,-0.0239,-0.0241,-0.0331,-0.0343,-0.0352,0,0,0,0,0,0,-0.0693,-0.0683,-0.0671,-0.0695,-0.0668,-0.0621,-0.0618,-0.0591,-0.0546,-0.0538,-0.0464,-0.0444,-0.0415,-0.0368,-0.0361,-0.0334,-0.0293,-0.0293,-0.0367,-0.0377,-0.0386,-0.0398,-0.0302,0,0,0,0,0,-0.0711,-0.0731,-0.0701,-0.072,-0.0711,-0.0667,-0.0653,-0.0626,-0.0582,-0.0561,-0.0507,-0.0454,-0.0416,-0.0385,-0.0343,-0.0317,-0.0286,-0.0323,-0.0332,-0.034,-0.034,-0.0342,-0.0351,-0.0251,-0.0251,-0.0251,0,0,-0.073,-0.0727,-0.0738,-0.0728,-0.0705,-0.0699,-0.0655,-0.0642,-0.0637,-0.0551,-0.0526,-0.0481,-0.0417,-0.0394,-0.0377,-0.0353,-0.0349,-0.0343,-0.035,-0.0346,-0.0345,-0.0355,-0.0364,-0.0253,-0.0252,-0.0252,0,0,-0.0772,-0.0774,-0.0798,-0.0782,-0.0757,-0.0729,-0.073,-0.0688,-0.0667,-0.0637,-0.0586,-0.0556,-0.0483,-0.0452,-0.0424,-0.0457,-0.0402,-0.0446,-0.049,-0.0493,-0.0501,-0.0508,-0.047,-0.0473,-0.0445,-0.0445,-0.0445,0,-0.0794,-0.0816,-0.0798,-0.0808,-0.0798,-0.0749,-0.0755,-0.0734,-0.068,-0.0668,-0.064,-0.0571,-0.0516,-0.05,-0.0506,-0.0479,-0.0454,-0.0455,-0.0505,-0.0512,-0.0517,-0.0476,-0.0478,-0.045,-0.045,-0.0449,-0.0449,0,-0.0846,-0.0855,-0.0865,-0.0864,-0.0854,-0.085,-0.0818,-0.0806,-0.0774,-0.0746,-0.0725,-0.0664,-0.0618,-0.0609,-0.0556,-0.0573,-0.0534,-0.0523,-0.0481,-0.0533,-0.0486,-0.0487,-0.0457,-0.0456,-0.0454,-0.0453,0,0,-0.0908,-0.0903,-0.0904,-0.0896,-0.0879,-0.0868,-0.0875,-0.0854,-0.0855,-0.0817,-0.082,-0.0765,-0.0732,-0.07,-0.0653,-0.0648,-0.0655,-0.0599,-0.0596,-0.0564,-0.063,-0.0546,-0.0537,-0.0657,-0.0658,-0.0658,-0.0578,0,-0.0944,-0.0964,-0.0958,-0.0962,-0.0958,-0.0928,-0.0933,-0.0914,-0.0892,-0.0885,-0.0846,-0.0823,-0.0769,-0.0748,-0.0741,-0.0678,-0.0662,-0.0676,-0.058,-0.0576,-0.05,-0.0537,-0.0556,-0.0481,-0.0577,-0.0577,-0.0577,0,-0.0993,-0.0991,-0.1008,-0.0987,-0.0985,-0.0987,-0.0979,-0.0974,-0.0964,-0.095,-0.0938,-0.0902,-0.0878,-0.0835,-0.0769,-0.0778,-0.0708,-0.0663,-0.0659,-0.0545,-0.0493,-0.0446,-0.0477,-0.0432,-0.0577,-0.0577,-0.0577,0,-0.1026,-0.1022,-0.1031,-0.1027,-0.1008,-0.1012,-0.0997,-0.0992,-0.0985,-0.0991,-0.0987,-0.0968,-0.0939,-0.0888,-0.0768,-0.0775,-0.0688,-0.0689,-0.0547,-0.0539,-0.0516,-0.0504,-0.0497,-0.0651,-0.0651,-0.0651,-0.0652,0,-0.1064,-0.1065,-0.1041,-0.1044,-0.1044,-0.1027,-0.1033,-0.1029,-0.1025,-0.1016,-0.1012,-0.0998,-0.0952,-0.0887,-0.0797,-0.0654,-0.0706,-0.0554,-0.0522,-0.0547,-0.0539,-0.0465,-0.0425,-0.0648,-0.0649,-0.065,-0.065,0,-0.1101,-0.1092,-0.1091,-0.107,-0.1061,-0.1059,-0.1036,-0.1042,-0.1036,-0.1033,-0.1032,-0.1014,-0.0928,-0.0848,-0.0748,-0.0666,-0.0505,-0.0487,-0.0493,-0.0463,-0.0302,-0.0266,-0.0163,-0.0115,-0.0346,-0.0343,-0.0341,0,-0.1122,-0.1126,-0.1108,-0.1103,-0.1092,-0.1077,-0.1072,-0.1053,-0.1052,-0.1021,-0.102,-0.0954,-0.0888,-0.0711,-0.0585,-0.0429,-0.0382,-0.0336,-0.036,-0.0292,-0.023,-0.0208,-0.0175,-0.0365,-0.0363,-0.0362,-0.0361,0,-0.1142,-0.1141,-0.1138,-0.1125,-0.1118,-0.1107,-0.1088,-0.1085,-0.1056,-0.104,-0.0987,-0.0932,-0.0768,-0.0626,-0.0428,-0.0336,-0.0299,-0.0299,-0.0258,-0.0261,-0.021,-0.0149,-0.0387,-0.0349,-0.035,-0.0351,-0.0351,-0.0352,-0.1148,-0.1151,-0.1143,-0.1131,-0.1128,-0.1122,-0.1107,-0.1093,-0.1068,-0.1018,-0.0955,-0.0854,-0.068,-0.0416,-0.0311,-0.015,-0.0139,-0.0124,-0.0087,-0.0072,-0.0028,-0.0201,-0.0106,-0.0106,-0.0105,-0.0105,-0.0105,0,-0.113,-0.1135,-0.1136,-0.1125,-0.1125,-0.112,-0.1104,-0.1087,-0.1053,-0.0986,-0.0908,-0.0684,-0.0505,-0.033,-0.0095,0.0018,0.002,0.0065,0.004,0.0063,-0.0133,-0.0138,-0.0011,-0.0011,-0.0011,-0.0011,-0.0011,-0.0011,-0.1115,-0.1114,-0.1116,-0.1106,-0.1105,-0.1083,-0.107,-0.1059,-0.1007,-0.0873,-0.0731,-0.0608,-0.033,-0.0072,0.0121,0.0147,0.022,0.0237,0.031,0.0111,0.0094,0.0077,0.0077,0.0248,0.0248,0.0448,0.045,0.0452]}],[{"header":{"parameterUnit":"m.s-1","parameterCategory":2,"la1":30.2991,"la2":30.254,"lo1":-89.0895,"lo2":-89.0444,"dy":0.0017,"dx":0.0017,"nx":28,"ny":28,"refTime":"2024-11-29T03:00:00:Z","depth":"2","parameterNumber":2,"parameterNumberName":"U-component_of_CURRENTS"},"data":[0,0,0,0,0,0,0,0,0,0,0,0,0,0,0,0,0,0,0,0,0,0,0,0,0,0,0,0,0,0,0,0,0,0,0,0,0,0,0,0,0,0,0,0,0,0,0,0,0,0,0,0,0,0,0,0,0,0,-0.2727,-0.2728,0,-0.2812,-0.2813,-0.2814,-0.2765,-0.2763,-0.276,-0.2758,-0.2814,-0.2818,-0.2822,0,0,0,0,0,0,0,0,0,0,0,0,0,-0.2536,-0.254,-0.2727,-0.2728,-0.2729,-0.2812,-0.2813,-0.2814,-0.2765,-0.2763,-0.276,-0.2757,-0.2813,-0.2817,-0.2822,0,0,0,0,0,0,0,0,0,0,0,0,0,-0.262,-0.2541,-0.2727,-0.2715,-0.2715,-0.2812,-0.2813,-0.2815,-0.2766,-0.2763,-0.2759,-0.2756,-0.2812,-0.2817,-0.2823,-0.2927,0,0,-0.2839,-0.2842,0,0,0,0,0,0,0,0,-0.2615,-0.2627,-0.2716,-0.2716,-0.2716,-0.2775,-0.2767,-0.2851,-0.2767,-0.2746,-0.2758,-0.2754,-0.2802,-0.2808,-0.2831,-0.293,-0.2932,-0.284,-0.2843,-0.2846,-0.2847,0,0,0,0,0,0,0,-0.2609,-0.2623,-0.276,-0.2717,-0.2718,-0.2711,-0.2719,-0.2783,-0.2792,-0.2748,-0.2744,-0.2756,-0.2801,-0.2826,-0.2832,-0.2933,-0.284,-0.2845,-0.2848,-0.285,-0.3017,-0.3018,0,0,0,0,0,0,-0.2604,-0.2618,-0.2757,-0.2763,-0.2656,-0.2717,-0.2726,-0.2759,-0.2791,-0.2793,-0.2759,-0.2753,-0.2818,-0.2826,-0.2834,-0.286,-0.2846,-0.2851,-0.2854,-0.3015,-0.3017,-0.3018,0,0,0,0,0,0,-0.26,-0.2617,-0.2754,-0.269,-0.2707,-0.2724,-0.2762,-0.2763,-0.2777,-0.28,-0.2801,-0.2771,-0.2816,-0.2826,-0.2862,-0.2865,-0.2853,-0.2858,-0.3014,-0.3016,-0.3017,-0.2975,0,0,0,0,0,0,-0.2595,-0.2615,-0.2642,-0.2692,-0.2711,-0.2793,-0.2766,-0.2767,-0.2791,-0.2784,-0.2812,-0.2813,-0.2814,-0.2854,-0.2867,-0.2872,-0.2863,-0.3013,-0.3015,-0.3017,-0.2975,-0.2976,-0.2976,0,0,0,0,0,-0.2588,-0.263,-0.2644,-0.266,-0.2747,-0.2794,-0.2804,-0.2802,-0.2795,-0.2803,-0.2811,-0.2812,-0.2876,-0.286,-0.2875,-0.2881,-0.3012,-0.3014,-0.3017,-0.2975,-0.2976,-0.2976,0,0,0,0,0,0,-0.256,-0.2631,-0.2646,-0.2708,-0.2742,-0.2785,-0.2802,-0.2815,-0.2836,-0.2825,-0.2839,-0.2842,-0.2874,-0.2899,-0.2881,-0.2937,-0.2942,-0.2948,-0.2905,-0.2906,-0.2906,-0.2852,-0.2867,0,0,0,0,0,-0.2573,-0.262,-0.2677,-0.2724,-0.2743,-0.2781,-0.2804,-0.2807,-0.2833,-0.2838,-0.2855,-0.2878,-0.2907,-0.2918,-0.2951,-0.3,-0.297,-0.3013,-0.3013,-0.3012,-0.2981,-0.2941,-0.2933,-0.3026,-0.3026,-0.3026,0,0,-0.2574,-0.2621,-0.2646,-0.272,-0.2748,-0.2775,-0.2784,-0.2817,-0.2818,-0.2847,-0.2855,-0.289,-0.2923,-0.295,-0.2967,-0.2963,-0.2974,-0.3015,-0.3014,-0.2983,-0.2943,-0.2933,-0.2924,-0.3028,-0.3028,-0.3027,0,0,-0.2585,-0.2642,-0.2675,-0.2705,-0.2753,-0.2777,-0.2788,-0.2834,-0.2826,-0.2871,-0.2868,-0.2885,-0.2967,-0.2947,-0.2961,-0.2992,-0.298,-0.3032,-0.2981,-0.2944,-0.2934,-0.2925,-0.2874,-0.2861,-0.3024,-0.3024,-0.3024,0,-0.2578,-0.2628,-0.2688,-0.2716,-0.2726,-0.2776,-0.2785,-0.2807,-0.2849,-0.284,-0.2863,-0.2927,-0.295,-0.2944,-0.2941,-0.2985,-0.2966,-0.2973,-0.2937,-0.2928,-0.2919,-0.287,-0.2856,-0.3022,-0.3022,-0.3022,-0.3023,0,-0.2605,-0.2635,-0.2653,-0.2701,-0.2728,-0.2745,-0.2777,-0.2791,-0.2813,-0.283,-0.2846,-0.2881,-0.2901,-0.2928,-0.2945,-0.2907,-0.2914,-0.2943,-0.2922,-0.2906,-0.2857,-0.2843,-0.302,-0.302,-0.3021,-0.3021,0,0,-0.2583,-0.2655,-0.2653,-0.2649,-0.2709,-0.2724,-0.2735,-0.2744,-0.2733,-0.2784,-0.2764,-0.2809,-0.2827,-0.2841,-0.2866,-0.2833,-0.2759,-0.286,-0.2859,-0.2782,-0.2666,-0.2567,-0.2542,-0.2788,-0.2786,-0.2784,-0.2654,0,-0.2563,-0.2587,-0.2639,-0.2634,-0.2631,-0.2673,-0.2678,-0.2695,-0.2719,-0.2719,-0.2738,-0.275,-0.2795,-0.2805,-0.278,-0.2783,-0.2721,-0.279,-0.2717,-0.2713,-0.2603,-0.2522,-0.2298,-0.2154,-0.264,-0.2638,-0.2636,0,-0.2539,-0.2556,-0.2549,-0.2563,-0.2569,-0.258,-0.2571,-0.2585,-0.2603,-0.2626,-0.2641,-0.2677,-0.2649,-0.2691,-0.2637,-0.2688,-0.2652,-0.2643,-0.2639,-0.254,-0.2586,-0.2253,-0.211,-0.2612,-0.2614,-0.2616,-0.2618,0,-0.2432,-0.2471,-0.2451,-0.2459,-0.2507,-0.2494,-0.2512,-0.2538,-0.2526,-0.2546,-0.2553,-0.2565,-0.2557,-0.2538,-0.2544,-0.2583,-0.2476,-0.2527,-0.2385,-0.2379,-0.2165,-0.2143,-0.2424,-0.2424,-0.2424,-0.2424,-0.2425,0,-0.2353,-0.2329,-0.2395,-0.2377,-0.2338,-0.2409,-0.2369,-0.2396,-0.2425,-0.2393,-0.2482,-0.2455,-0.2518,-0.2492,-0.2495,-0.239,-0.2428,-0.2326,-0.2319,-0.2148,-0.2127,-0.2519,-0.2531,-0.2419,-0.2421,-0.2422,-0.2422,0,-0.2209,-0.2264,-0.2229,-0.2273,-0.2277,-0.2237,-0.2262,-0.2239,-0.2303,-0.2262,-0.2262,-0.2338,-0.2303,-0.2348,-0.2308,-0.2292,-0.223,-0.2173,-0.1965,-0.1934,-0.2167,-0.218,-0.1977,-0.1972,-0.1967,-0.1964,-0.1961,0,-0.2131,-0.2106,-0.2119,-0.2093,-0.2101,-0.2077,-0.2059,-0.2135,-0.2118,-0.2168,-0.2128,-0.2127,-0.2072,-0.2013,-0.1974,-0.1906,-0.2061,-0.1683,-0.1693,-0.2096,-0.2112,-0.2132,-0.215,-0.1399,-0.1391,-0.1385,-0.138,0,-0.1967,-0.1978,-0.1957,-0.1911,-0.1879,-0.185,-0.1839,-0.1818,-0.1898,-0.1886,-0.1853,-0.1817,-0.1753,-0.1591,-0.1548,-0.1504,-0.169,-0.1555,-0.1988,-0.1564,-0.1545,-0.1564,-0.1601,-0.1327,-0.1332,-0.1336,-0.1339,-0.1341,-0.1828,-0.1772,-0.1758,-0.1702,-0.1675,-0.1626,-0.1559,-0.1578,-0.1536,-0.1509,-0.1544,-0.1441,-0.1412,-0.1217,-0.1147,-0.1131,-0.1272,-0.1232,-0.1253,-0.1279,-0.1252,-0.1229,-0.0945,-0.0948,-0.0951,-0.0953,-0.0955,0,-0.1642,-0.1615,-0.1557,-0.1491,-0.1415,-0.146,-0.1411,-0.1354,-0.1269,-0.1248,-0.118,-0.0986,-0.0816,-0.085,-0.0694,-0.0668,-0.07,-0.067,-0.0698,-0.0747,-0.0792,-0.0746,-0.0301,-0.03,-0.0299,-0.0298,0,0,-0.1541,-0.1435,-0.1419,-0.1258,-0.1223,-0.1095,-0.1046,-0.1001,-0.0967,-0.0879,-0.0802,-0.0768,-0.0771,-0.0536,-0.0466,-0.0363,-0.0574,-0.0337,-0.0843,-0.0922,-0.0967,-0.1074,-0.1051,0,0,0,0,0]},{"header":{"parameterUnit":"m.s-1","parameterCategory":2,"la1":30.2991,"la2":30.254,"lo1":-89.0895,"lo2":-89.0444,"dy":0.0017,"dx":0.0017,"nx":28,"ny":28,"refTime":"2024-11-29T03:00:00:Z","depth":"2","parameterNumber":3,"parameterNumberName":"V-component_of_CURRENTS"},"data":[0,0,0,0,0,0,0,0,0,0,0,0,0,0,0,0,0,0,0,0,0,0,0,0,0,0,0,0,0,0,0,0,0,0,0,0,0,0,0,0,0,0,0,0,0,0,0,0,0,0,0,0,0,0,0,0,0,0,-0.0581,-0.058,0,-0.0508,-0.0507,-0.0506,-0.0435,-0.0434,-0.0434,-0.0433,-0.0279,-0.0276,-0.0272,0,0,0,0,0,0,0,0,0,0,0,0,0,-0.0578,-0.0579,-0.0581,-0.058,-0.0579,-0.0508,-0.0507,-0.0506,-0.0435,-0.0434,-0.0433,-0.0432,-0.028,-0.0276,-0.0272,0,0,0,0,0,0,0,0,0,0,0,0,0,-0.0549,-0.0579,-0.0581,-0.0537,-0.0532,-0.0509,-0.0507,-0.0506,-0.0435,-0.0434,-0.0433,-0.0432,-0.0281,-0.0277,-0.0272,-0.0264,0,0,-0.0256,-0.0254,0,0,0,0,0,0,0,0,-0.055,-0.0549,-0.0544,-0.054,-0.0535,-0.0481,-0.045,-0.0421,-0.0436,-0.047,-0.0433,-0.0431,-0.0341,-0.0331,-0.0319,-0.0256,-0.025,-0.0256,-0.0253,-0.025,-0.0249,0,0,0,0,0,0,0,-0.0553,-0.0551,-0.055,-0.0543,-0.0538,-0.0493,-0.0488,-0.0444,-0.041,-0.0467,-0.0462,-0.0457,-0.0337,-0.0324,-0.0314,-0.0248,-0.0256,-0.0251,-0.0248,-0.0246,-0.0175,-0.0176,0,0,0,0,0,0,-0.0571,-0.0554,-0.0553,-0.0548,-0.0542,-0.0495,-0.0489,-0.0498,-0.0412,-0.0399,-0.0458,-0.0454,-0.0333,-0.032,-0.0309,-0.0291,-0.025,-0.0246,-0.0243,-0.0173,-0.0175,-0.0176,0,0,0,0,0,0,-0.0571,-0.0572,-0.0556,-0.0549,-0.0544,-0.0497,-0.0507,-0.0497,-0.0483,-0.0407,-0.0392,-0.0454,-0.0332,-0.0316,-0.0267,-0.0284,-0.0243,-0.0239,-0.0172,-0.0174,-0.0175,-0.0258,0,0,0,0,0,0,-0.0572,-0.0573,-0.0588,-0.0551,-0.0546,-0.0546,-0.0508,-0.0497,-0.0483,-0.0476,-0.0398,-0.0383,-0.0329,-0.0275,-0.0262,-0.0277,-0.0235,-0.0171,-0.0173,-0.0175,-0.0253,-0.0262,-0.0269,0,0,0,0,0,-0.0572,-0.06,-0.059,-0.059,-0.0568,-0.0546,-0.0539,-0.0499,-0.0484,-0.0481,-0.0426,-0.0385,-0.0279,-0.0271,-0.0255,-0.027,-0.017,-0.0172,-0.0175,-0.025,-0.026,-0.0269,0,0,0,0,0,0,-0.0607,-0.0595,-0.0582,-0.0605,-0.0579,-0.0535,-0.0535,-0.051,-0.0467,-0.0459,-0.0387,-0.0368,-0.0339,-0.0295,-0.0288,-0.0259,-0.0223,-0.0223,-0.0286,-0.0295,-0.0303,-0.0315,-0.0231,0,0,0,0,0,-0.0624,-0.0643,-0.0613,-0.0632,-0.0623,-0.0582,-0.057,-0.0543,-0.0501,-0.0482,-0.0429,-0.0378,-0.0341,-0.0309,-0.027,-0.0242,-0.0214,-0.0247,-0.0255,-0.0261,-0.0263,-0.0256,-0.0264,-0.0184,-0.0184,-0.0184,0,0,-0.0643,-0.064,-0.0649,-0.064,-0.0618,-0.0609,-0.0572,-0.056,-0.0545,-0.0472,-0.0439,-0.0404,-0.0342,-0.0316,-0.03,-0.0276,-0.0268,-0.0265,-0.0271,-0.0269,-0.026,-0.0267,-0.0274,-0.0186,-0.0186,-0.0186,0,0,-0.0684,-0.0687,-0.0709,-0.0692,-0.0669,-0.064,-0.0641,-0.0601,-0.0574,-0.0542,-0.0495,-0.0467,-0.0402,-0.0363,-0.0335,-0.0363,-0.0318,-0.036,-0.0396,-0.039,-0.0396,-0.0402,-0.0371,-0.0373,-0.0355,-0.0356,-0.0356,0,-0.0706,-0.0725,-0.0709,-0.0717,-0.0704,-0.0658,-0.0661,-0.0631,-0.0578,-0.0563,-0.0541,-0.0482,-0.0424,-0.0401,-0.0405,-0.0379,-0.0365,-0.0363,-0.0401,-0.0405,-0.0409,-0.0376,-0.0377,-0.036,-0.0359,-0.0359,-0.0359,0,-0.0754,-0.0761,-0.0771,-0.0765,-0.0753,-0.0747,-0.0705,-0.0687,-0.0656,-0.0626,-0.0606,-0.0546,-0.0509,-0.0497,-0.0448,-0.0457,-0.0433,-0.042,-0.0378,-0.0422,-0.0384,-0.0384,-0.0366,-0.0364,-0.0363,-0.0362,0,0,-0.0817,-0.0806,-0.0807,-0.0797,-0.0774,-0.0762,-0.075,-0.0719,-0.0715,-0.0678,-0.0675,-0.062,-0.0603,-0.0571,-0.053,-0.0516,-0.0518,-0.0481,-0.0479,-0.0452,-0.0495,-0.0416,-0.0407,-0.052,-0.0521,-0.0521,-0.0455,0,-0.085,-0.0866,-0.0855,-0.0852,-0.0846,-0.0808,-0.0799,-0.077,-0.0745,-0.0731,-0.0689,-0.067,-0.0627,-0.0617,-0.0602,-0.0542,-0.0522,-0.0536,-0.0454,-0.0451,-0.0377,-0.0406,-0.0308,-0.0236,-0.0454,-0.0454,-0.0454,0,-0.0897,-0.0892,-0.0904,-0.0875,-0.0872,-0.0869,-0.0849,-0.0831,-0.0807,-0.0792,-0.0785,-0.0755,-0.0723,-0.0688,-0.0621,-0.0637,-0.0571,-0.0526,-0.0522,-0.0419,-0.0372,-0.0228,-0.0227,-0.0452,-0.0453,-0.0453,-0.0453,0,-0.0934,-0.0922,-0.0928,-0.092,-0.0892,-0.0891,-0.0871,-0.0855,-0.0838,-0.0835,-0.0835,-0.0814,-0.0788,-0.0738,-0.0623,-0.0633,-0.0544,-0.0543,-0.0411,-0.0403,-0.0286,-0.0267,-0.05,-0.05,-0.05,-0.05,-0.0501,0,-0.0971,-0.097,-0.0941,-0.0943,-0.0939,-0.0914,-0.0917,-0.0904,-0.089,-0.0876,-0.0867,-0.0853,-0.0802,-0.0736,-0.065,-0.0515,-0.056,-0.0417,-0.0386,-0.031,-0.0295,-0.0456,-0.0452,-0.0498,-0.0498,-0.0499,-0.0499,0,-0.1013,-0.1,-0.0997,-0.097,-0.096,-0.0957,-0.0927,-0.0929,-0.0917,-0.0905,-0.0904,-0.0875,-0.0792,-0.0711,-0.0607,-0.0527,-0.0419,-0.0353,-0.0251,-0.021,-0.028,-0.0281,-0.0229,-0.0226,-0.0223,-0.0221,-0.0219,0,-0.1035,-0.1039,-0.1019,-0.1013,-0.1001,-0.0984,-0.0976,-0.0949,-0.0943,-0.0901,-0.0895,-0.0828,-0.0756,-0.0579,-0.0416,-0.0256,-0.0316,-0.0095,-0.0098,-0.028,-0.0255,-0.026,-0.0265,0.003,0.0034,0.0037,0.0039,0,-0.106,-0.106,-0.1054,-0.1043,-0.1035,-0.1021,-0.0999,-0.0993,-0.0953,-0.0927,-0.0866,-0.0804,-0.0607,-0.0386,-0.0179,-0.0083,-0.0123,-0.0027,-0.0242,-0.0056,-0.003,-0.0008,-0.0022,0.0067,0.0064,0.0062,0.0061,0.0059,-0.107,-0.1074,-0.1065,-0.1054,-0.1051,-0.1042,-0.1026,-0.0975,-0.0935,-0.0805,-0.0779,-0.0575,-0.0436,-0.0049,0.0048,0.015,0.011,0.0149,0.0137,0.0122,0.0138,0.0167,0.0306,0.0305,0.0303,0.0302,0.0301,0,-0.1051,-0.1062,-0.1064,-0.1052,-0.1045,-0.1046,-0.1025,-0.095,-0.0863,-0.0681,-0.0539,-0.0274,-0.0015,0.0109,0.034,0.0403,0.0364,0.0384,0.0339,0.0316,0.0294,0.0313,0.053,0.053,0.0529,0.0529,0,0,-0.1036,-0.1034,-0.1036,-0.1024,-0.1028,-0.0991,-0.0975,-0.085,-0.0692,-0.0463,-0.0247,0.0007,0.0115,0.0312,0.0386,0.0478,0.0359,0.0474,0.0305,0.0225,0.0201,0.0197,0.0209,0,0,0,0,0]}],[{"header":{"parameterUnit":"m.s-1","parameterCategory":2,"la1":30.2991,"la2":30.254,"lo1":-89.0895,"lo2":-89.0444,"dy":0.0017,"dx":0.0017,"nx":28,"ny":28,"refTime":"2024-11-29T03:00:00:Z","depth":"4","parameterNumber":2,"parameterNumberName":"U-component_of_CURRENTS"},"data":[0,0,0,0,0,0,0,0,0,0,0,0,0,0,0,0,0,0,0,0,0,0,0,0,0,0,0,0,0,0,0,0,0,0,0,0,0,0,0,0,0,0,0,0,0,0,0,0,0,0,0,0,0,0,0,0,0,0,-0.1411,-0.1411,0,-0.1433,-0.1434,-0.1434,-0.1473,-0.1473,-0.1473,-0.1474,-0.1477,-0.1477,-0.1477,0,0,0,0,0,0,0,0,0,0,0,0,0,-0.1455,-0.1454,-0.1411,-0.1411,-0.1411,-0.1433,-0.1434,-0.1434,-0.1472,-0.1473,-0.1474,-0.1474,-0.1477,-0.1477,-0.1477,0,0,0,0,0,0,0,0,0,0,0,0,0,-0.1455,-0.1453,-0.1411,-0.1431,-0.1432,-0.1433,-0.1434,-0.1434,-0.1472,-0.1473,-0.1474,-0.1474,-0.1478,-0.1477,-0.1477,-0.1461,0,0,-0.1475,-0.1475,0,0,0,0,0,0,0,0,-0.1455,-0.1454,-0.1428,-0.1429,-0.1431,-0.1448,-0.145,-0.1441,-0.1472,-0.146,-0.1474,-0.1475,-0.1463,-0.1464,-0.1471,-0.1461,-0.1461,-0.1475,-0.1475,-0.1475,-0.1475,0,0,0,0,0,0,0,-0.1455,-0.1453,-0.1423,-0.1428,-0.143,-0.1456,-0.1456,-0.1449,-0.146,-0.1462,-0.1464,-0.1461,-0.1465,-0.1472,-0.1472,-0.1461,-0.1475,-0.1475,-0.1475,-0.1474,-0.1528,-0.1529,0,0,0,0,0,0,-0.1442,-0.1453,-0.1422,-0.1423,-0.1441,-0.1454,-0.1455,-0.1444,-0.1461,-0.1463,-0.146,-0.1462,-0.1472,-0.1472,-0.1472,-0.151,-0.1475,-0.1474,-0.1474,-0.1526,-0.1528,-0.153,0,0,0,0,0,0,-0.1443,-0.1439,-0.1421,-0.1437,-0.1436,-0.1452,-0.144,-0.1444,-0.1476,-0.1459,-0.1462,-0.149,-0.1473,-0.1473,-0.1516,-0.1509,-0.1474,-0.1474,-0.1524,-0.1527,-0.1529,-0.1551,0,0,0,0,0,0,-0.1444,-0.1439,-0.1442,-0.1435,-0.1434,-0.1437,-0.1439,-0.1444,-0.147,-0.1475,-0.1485,-0.1485,-0.1473,-0.1517,-0.1515,-0.1507,-0.1473,-0.1522,-0.1525,-0.1528,-0.1548,-0.1554,-0.1559,0,0,0,0,0,-0.1445,-0.1439,-0.1441,-0.1439,-0.1433,-0.1437,-0.1441,-0.1456,-0.1471,-0.1488,-0.1519,-0.1486,-0.1535,-0.1519,-0.1516,-0.1508,-0.152,-0.1524,-0.1528,-0.1545,-0.1552,-0.1558,0,0,0,0,0,0,-0.1468,-0.1441,-0.1445,-0.1434,-0.1443,-0.1443,-0.1462,-0.1471,-0.1508,-0.1529,-0.1516,-0.1519,-0.1533,-0.154,-0.1522,-0.1537,-0.1517,-0.1521,-0.1532,-0.1538,-0.1543,-0.149,-0.1473,0,0,0,0,0,-0.147,-0.1457,-0.1447,-0.1446,-0.1453,-0.1465,-0.1475,-0.149,-0.1511,-0.1529,-0.1535,-0.155,-0.1542,-0.1561,-0.1551,-0.158,-0.1556,-0.1574,-0.1579,-0.1584,-0.1543,-0.1516,-0.1514,-0.1542,-0.1542,-0.1542,0,0,-0.1482,-0.1463,-0.1461,-0.145,-0.1464,-0.1467,-0.1475,-0.1504,-0.1505,-0.1522,-0.1549,-0.1557,-0.1551,-0.1568,-0.1577,-0.1581,-0.1578,-0.1589,-0.1592,-0.1547,-0.152,-0.1516,-0.1513,-0.1545,-0.1544,-0.1544,0,0,-0.1489,-0.1486,-0.1479,-0.1482,-0.1497,-0.1498,-0.151,-0.153,-0.1543,-0.1573,-0.1572,-0.1583,-0.1605,-0.1585,-0.1578,-0.1611,-0.1589,-0.1633,-0.1633,-0.1611,-0.1606,-0.1602,-0.1622,-0.1619,-0.1658,-0.1658,-0.1658,0,-0.1513,-0.1489,-0.1485,-0.1479,-0.1485,-0.151,-0.1518,-0.1525,-0.1558,-0.157,-0.1588,-0.1593,-0.1587,-0.1572,-0.159,-0.1609,-0.1626,-0.1606,-0.1612,-0.1607,-0.1602,-0.1623,-0.1619,-0.166,-0.166,-0.1659,-0.1659,0,-0.1499,-0.1498,-0.1502,-0.1491,-0.1499,-0.1519,-0.1519,-0.1547,-0.1571,-0.1573,-0.158,-0.1582,-0.1587,-0.159,-0.1597,-0.1573,-0.1608,-0.1601,-0.1584,-0.16,-0.1623,-0.1619,-0.1662,-0.1661,-0.1661,-0.1661,0,0,-0.1509,-0.1495,-0.1502,-0.1513,-0.1512,-0.1528,-0.1529,-0.1539,-0.1553,-0.1569,-0.1572,-0.1549,-0.1567,-0.1559,-0.1571,-0.1551,-0.1548,-0.1581,-0.1579,-0.1579,-0.1548,-0.1414,-0.1398,-0.1563,-0.1562,-0.156,-0.1597,0,-0.1511,-0.1509,-0.1492,-0.1515,-0.1523,-0.1538,-0.1532,-0.1548,-0.1563,-0.1577,-0.1557,-0.1561,-0.1552,-0.1578,-0.155,-0.1533,-0.1531,-0.154,-0.1548,-0.1548,-0.1407,-0.1383,-0.1554,-0.1593,-0.1592,-0.1592,-0.1591,0,-0.1495,-0.15,-0.1514,-0.1536,-0.1544,-0.1559,-0.1587,-0.1589,-0.159,-0.1599,-0.1593,-0.159,-0.1556,-0.1553,-0.1504,-0.1529,-0.1535,-0.1519,-0.1521,-0.1363,-0.1401,-0.1563,-0.1583,-0.1583,-0.1584,-0.1585,-0.1585,0,-0.1496,-0.1519,-0.1537,-0.1542,-0.1559,-0.1586,-0.161,-0.1615,-0.1616,-0.1626,-0.1627,-0.1596,-0.1586,-0.1554,-0.1514,-0.1535,-0.1458,-0.1488,-0.1374,-0.137,-0.1472,-0.1475,-0.1445,-0.1445,-0.1445,-0.1445,-0.1445,0,-0.1469,-0.1493,-0.1558,-0.1563,-0.1595,-0.1624,-0.165,-0.1656,-0.1671,-0.1649,-0.1654,-0.1608,-0.1584,-0.1541,-0.1518,-0.1407,-0.1467,-0.1333,-0.1338,-0.1494,-0.1499,-0.1473,-0.1476,-0.1446,-0.1446,-0.1446,-0.1445,0,-0.1417,-0.1463,-0.1489,-0.1554,-0.1582,-0.1609,-0.1659,-0.1661,-0.1697,-0.1667,-0.167,-0.1631,-0.1543,-0.1509,-0.1451,-0.1393,-0.1319,-0.1282,-0.1465,-0.1488,-0.1265,-0.127,-0.1157,-0.1152,-0.1147,-0.1144,-0.1141,0,-0.1366,-0.1383,-0.147,-0.1486,-0.1513,-0.1573,-0.1581,-0.1647,-0.1638,-0.1641,-0.16,-0.1553,-0.15,-0.1308,-0.1292,-0.1225,-0.1207,-0.1206,-0.1192,-0.1203,-0.1221,-0.1233,-0.1243,-0.1134,-0.1133,-0.1132,-0.113,0,-0.1262,-0.1319,-0.1335,-0.1379,-0.1417,-0.1442,-0.1484,-0.1482,-0.1528,-0.1581,-0.1468,-0.1397,-0.1289,-0.12,-0.1149,-0.1106,-0.121,-0.1161,-0.117,-0.1158,-0.1174,-0.1199,-0.1214,-0.1115,-0.1117,-0.1119,-0.112,0,-0.1179,-0.117,-0.1217,-0.1239,-0.1285,-0.1289,-0.1337,-0.1325,-0.1339,-0.1373,-0.1327,-0.1262,-0.1266,-0.1137,-0.1084,-0.1015,-0.1003,-0.0992,-0.1011,-0.1027,-0.0954,-0.0955,-0.0795,0,0,0,0,0,-0.1079,-0.1059,-0.1068,-0.1092,-0.114,-0.1171,-0.1239,-0.1293,-0.1366,-0.1245,-0.1292,-0.1179,-0.1059,-0.1031,-0.0925,-0.1019,-0.1014,-0.0895,-0.1016,-0.1032,-0.1049,-0.0968,0,0,0,0,0,0,-0.1011,-0.101,-0.1016,-0.0969,-0.0966,-0.1002,-0.1047,-0.1106,-0.1057,-0.1127,-0.1054,-0.1104,-0.0992,-0.1079,-0.0893,-0.0888,-0.0941,-0.0881,-0.0877,-0.1022,-0.1038,-0.1052,-0.0974,0,0,0,0,0]},{"header":{"parameterUnit":"m.s-1","parameterCategory":2,"la1":30.2991,"la2":30.254,"lo1":-89.0895,"lo2":-89.0444,"dy":0.0017,"dx":0.0017,"nx":28,"ny":28,"refTime":"2024-11-29T03:00:00:Z","depth":"4","parameterNumber":3,"parameterNumberName":"V-component_of_CURRENTS"},"data":[0,0,0,0,0,0,0,0,0,0,0,0,0,0,0,0,0,0,0,0,0,0,0,0,0,0,0,0,0,0,0,0,0,0,0,0,0,0,0,0,0,0,0,0,0,0,0,0,0,0,0,0,0,0,0,0,0,0,-0.021,-0.0209,0,-0.0188,-0.0188,-0.0188,-0.0158,-0.0158,-0.0157,-0.0157,-0.0106,-0.0106,-0.0105,0,0,0,0,0,0,0,0,0,0,0,0,0,-0.0239,-0.0239,-0.021,-0.0209,-0.0209,-0.0188,-0.0188,-0.0188,-0.0159,-0.0158,-0.0157,-0.0156,-0.0107,-0.0106,-0.0105,0,0,0,0,0,0,0,0,0,0,0,0,0,-0.0224,-0.0238,-0.021,-0.0191,-0.0189,-0.0188,-0.0188,-0.0188,-0.0159,-0.0158,-0.0157,-0.0156,-0.0107,-0.0106,-0.0105,-0.0116,0,0,-0.0101,-0.0101,0,0,0,0,0,0,0,0,-0.0225,-0.0223,-0.0194,-0.0192,-0.019,-0.0174,-0.018,-0.0162,-0.0159,-0.0172,-0.0157,-0.0156,-0.0126,-0.0123,-0.0124,-0.0114,-0.0111,-0.0101,-0.01,-0.01,-0.0099,0,0,0,0,0,0,0,-0.0226,-0.0224,-0.0202,-0.0194,-0.0191,-0.0188,-0.0185,-0.0176,-0.0155,-0.017,-0.0168,-0.0164,-0.0125,-0.0125,-0.0122,-0.0111,-0.0101,-0.01,-0.0099,-0.0099,-0.0103,-0.0104,0,0,0,0,0,0,-0.0226,-0.0225,-0.0203,-0.0202,-0.0204,-0.0188,-0.0184,-0.0181,-0.0155,-0.015,-0.0164,-0.0162,-0.0127,-0.0123,-0.012,-0.0103,-0.01,-0.0099,-0.0098,-0.0102,-0.0103,-0.0104,0,0,0,0,0,0,-0.0227,-0.0224,-0.0204,-0.0212,-0.0208,-0.0188,-0.0185,-0.0181,-0.0179,-0.0151,-0.0145,-0.0165,-0.0126,-0.0122,-0.0112,-0.0102,-0.0098,-0.0097,-0.0101,-0.0102,-0.0103,-0.0087,0,0,0,0,0,0,-0.0228,-0.0225,-0.0227,-0.0212,-0.0208,-0.0205,-0.0185,-0.0181,-0.0177,-0.0174,-0.015,-0.0144,-0.0125,-0.0114,-0.0111,-0.01,-0.0096,-0.01,-0.0102,-0.0103,-0.0086,-0.0087,-0.0088,0,0,0,0,0,-0.0229,-0.0236,-0.0228,-0.0225,-0.0211,-0.0205,-0.0204,-0.0187,-0.0178,-0.0181,-0.0163,-0.0145,-0.0121,-0.0113,-0.011,-0.0098,-0.0099,-0.0101,-0.0103,-0.0086,-0.0087,-0.0088,0,0,0,0,0,0,-0.0254,-0.0233,-0.0224,-0.0225,-0.0216,-0.02,-0.0204,-0.0192,-0.0182,-0.0182,-0.0152,-0.0146,-0.0136,-0.013,-0.0122,-0.0109,-0.0109,-0.011,-0.0097,-0.0098,-0.0099,-0.0071,-0.0095,0,0,0,0,0,-0.026,-0.0259,-0.0239,-0.0243,-0.0239,-0.0223,-0.0221,-0.0211,-0.0198,-0.0193,-0.0175,-0.0161,-0.0144,-0.013,-0.0125,-0.0113,-0.0073,-0.0108,-0.0109,-0.0109,-0.0088,-0.001,-0.0,-0.011,-0.011,-0.011,0,0,-0.0274,-0.0261,-0.0261,-0.0248,-0.0241,-0.0233,-0.022,-0.0222,-0.0208,-0.019,-0.0176,-0.0168,-0.0146,-0.0132,-0.0127,-0.012,-0.0065,-0.0112,-0.0112,-0.0089,-0.0011,0.0001,0.0011,-0.0111,-0.0111,-0.0111,0,0,-0.0295,-0.0287,-0.0289,-0.028,-0.0269,-0.0254,-0.0254,-0.0242,-0.0229,-0.0219,-0.02,-0.0175,-0.0168,-0.0131,-0.0113,-0.0117,-0.0079,-0.0136,-0.0102,-0.0028,-0.0016,-0.0006,0.0037,0.0052,-0.0127,-0.0127,-0.0127,0,-0.0313,-0.0304,-0.0292,-0.0288,-0.0274,-0.0261,-0.0254,-0.0242,-0.0228,-0.0206,-0.0216,-0.0164,-0.0154,-0.0093,-0.01,-0.0111,-0.0079,-0.0094,-0.0023,-0.0012,-0.0001,0.0041,0.0057,-0.0126,-0.0126,-0.0126,-0.0126,0,-0.0327,-0.0319,-0.0323,-0.0302,-0.029,-0.0288,-0.026,-0.0252,-0.0237,-0.021,-0.0166,-0.0143,-0.0102,-0.0104,-0.0101,-0.003,-0.0037,-0.0036,-0.0009,0.0012,0.0053,0.0069,-0.0125,-0.0125,-0.0126,-0.0126,0,0,-0.0373,-0.0337,-0.0341,-0.0328,-0.0294,-0.0291,-0.026,-0.0219,-0.0186,-0.0167,-0.0104,-0.0078,-0.0059,-0.0039,-0.0027,0.0038,0.0121,0.0028,0.0032,0.0092,0.0268,0.0205,0.0216,0.0137,0.014,0.0143,0.026,0,-0.0387,-0.038,-0.0347,-0.0336,-0.0328,-0.0287,-0.0253,-0.0215,-0.0174,-0.0119,-0.0063,-0.0022,-0.0035,-0.0018,0.005,0.0108,0.0167,0.0088,0.0222,0.0225,0.0186,0.0235,0.0153,0.0273,0.0276,0.0279,0.0281,0,-0.0413,-0.0399,-0.0391,-0.0339,-0.033,-0.0322,-0.0256,-0.0224,-0.0132,-0.0093,-0.002,0.0019,0.0113,0.0089,0.0238,0.0186,0.0225,0.027,0.0276,0.0231,0.0194,0.0251,0.0311,0.0308,0.0306,0.0304,0.0302,0,-0.0463,-0.0431,-0.0423,-0.0412,-0.0353,-0.0342,-0.0313,-0.0231,-0.0198,-0.0085,-0.004,0.0085,0.0133,0.0235,0.03,0.028,0.0461,0.0448,0.0433,0.0428,0.0444,0.0432,0.0558,0.0557,0.0557,0.0557,0.0556,0,-0.0485,-0.0484,-0.0459,-0.046,-0.0446,-0.0393,-0.0362,-0.0304,-0.0218,-0.0163,-0.0049,0.0022,0.0171,0.0276,0.0344,0.0437,0.0497,0.0462,0.047,0.0439,0.0426,0.0454,0.044,0.0561,0.056,0.0559,0.0559,0,-0.0531,-0.0515,-0.0515,-0.0479,-0.0476,-0.0477,-0.0432,-0.0395,-0.0307,-0.0227,-0.0197,-0.002,0.0129,0.0263,0.0435,0.047,0.0577,0.0581,0.0533,0.0531,0.0485,0.0471,0.0614,0.0613,0.0612,0.0612,0.0611,0,-0.054,-0.0551,-0.0555,-0.0563,-0.0556,-0.0551,-0.0532,-0.0461,-0.0418,-0.0259,-0.0217,-0.0056,0.0063,0.0296,0.0415,0.0573,0.056,0.0615,0.0565,0.0506,0.0499,0.0486,0.0472,0.061,0.061,0.0609,0.0609,0,-0.0552,-0.0576,-0.0576,-0.0602,-0.0614,-0.0602,-0.058,-0.0557,-0.0448,-0.0387,-0.021,-0.0067,0.0103,0.0285,0.0397,0.0497,0.0597,0.0607,0.0609,0.0563,0.0502,0.0494,0.0481,0.0607,0.0607,0.0607,0.0607,0,-0.0564,-0.0581,-0.06,-0.0616,-0.0636,-0.0624,-0.0611,-0.0533,-0.0481,-0.0314,-0.0268,-0.0052,0.0071,0.0242,0.0349,0.0449,0.046,0.0477,0.0486,0.049,0.0401,0.0302,0.0377,0,0,0,0,0,-0.0556,-0.0574,-0.0597,-0.0614,-0.0639,-0.0643,-0.061,-0.0582,-0.0504,-0.0388,-0.0322,-0.016,0.0055,0.0168,0.0259,0.0297,0.0448,0.04,0.0465,0.0592,0.0595,0.0503,0,0,0,0,0,0,-0.055,-0.058,-0.0592,-0.0607,-0.0619,-0.063,-0.0607,-0.0555,-0.0475,-0.0383,-0.0256,-0.0178,0.0035,-0.0004,0.0249,0.0281,0.0325,0.0506,0.0507,0.059,0.0593,0.0595,0.0502,0,0,0,0,0]}]]